Regional Weather Roundup
Issued by NWS

Home | Current Version | Previous Version | Graphics & Text | Print | Product List | Glossary Off
Versions: 1 2 3 4 5 6 7 8 9 10 11 12 13 14 15 16 17 18 19 20 21 22 23 24 25 26 27 28 29 30 31 32 33 34 35 36 37 38 39 40 41 42 43 44 45 46 47 48 49 50

000
ASUS43 KTOP 171159
RWRKS

WEATHER ROUNDUP FOR KANSAS
NATIONAL WEATHER SERVICE GOODLAND KS
700 AM CDT THU APR 17 2014

NOTE:  "FAIR" INDICATES FEW OR NO CLOUDS BELOW 12,000 FEET WITH NO
SIGNIFICANT WEATHER AND/OR OBSTRUCTIONS TO VISIBILITY.

KSZ001>006-013>018-027>032-041>047-171300-
NORTHWEST KANSAS

CITY           SKY/WX    TMP DP  RH WIND       PRES   REMARKS
GOODLAND       CLOUDY    30  28  92 E7        30.19R
6HR MIN TEMP:  30; 6HR MAX TEMP:  39;

HAYS           CLOUDY    34  23  64 NE8       30.25R
HILL CITY      CLOUDY    32  25  75 NE6       30.25R
6HR MIN TEMP:  32; 6HR MAX TEMP:  38;

RUSSELL        CLOUDY    34  26  72 NE8       30.24R
6HR MIN TEMP:  34; 6HR MAX TEMP:  41;

$$

KSZ061>065-074>080-084>089-171300-
SOUTHWEST KANSAS

CITY           SKY/WX    TMP DP  RH WIND       PRES   REMARKS
DODGE CITY     LGT RAIN  34  31  88 NE13      30.20R WCI  25
6HR MIN TEMP:  34; 6HR MAX TEMP:  48; 6HR PCP: TRACE;

ELKHART          N/A     41  33  73 NE9         N/A
GARDEN CITY    LGT RAIN  35  32  88 NE13      30.18R FOG     WCI  26
6HR MIN TEMP:  35; 6HR MAX TEMP:  49; 6HR PCP:  0.06;

GREAT BEND     CLOUDY    36  25  64 NE14      30.24R WCI  27
LIBERAL        CLOUDY    43  30  61 NE14      30.18R
$$

KSZ066>073-081>083-090>101-171300-
SOUTHEAST KANSAS

CITY           SKY/WX    TMP DP  RH WIND       PRES   REMARKS
CHANUTE        CLOUDY    41  32  70 N9        30.21R
6HR MIN TEMP:  41; 6HR MAX TEMP:  49;

COFFEYVILLE    CLOUDY    44  36  73 N8        30.19R
6HR MIN TEMP:  41; 6HR MAX TEMP:  50;

HUTCHINSON     CLOUDY    37  27  67 NE15G22   30.23R WCI  28
6HR MIN TEMP:  37; 6HR MAX TEMP:  46;

NEWTON         CLOUDY    36  25  64 N18       30.24R WCI  25
PARSONS        CLOUDY    43  33  68 N8        30.20R
6HR MIN TEMP:  38; 6HR MAX TEMP:  48;

WICHITA INTL   CLOUDY    40  29  64 N17       30.22R WCI  31
6HR MIN TEMP:  40; 6HR MAX TEMP:  48;

WICHITA JABRA  CLOUDY    38  29  70 N13       30.21R WCI  30
6HR MIN TEMP:  38; 6HR MAX TEMP:  45;

WINFIELD       CLOUDY    42  32  67 NE12      30.21R
6HR MIN TEMP:  42; 6HR MAX TEMP:  51;

$$

KSZ007>012-019>026-033>040-048>060-102>105-171300-
NORTHEAST KANSAS

CITY           SKY/WX    TMP DP  RH WIND       PRES   REMARKS
CONCORDIA      CLOUDY    33  26  75 N9        30.25R
6HR MIN TEMP:  33; 6HR MAX TEMP:  37;

EMPORIA        CLOUDY    37  29  72 N13G18    30.22R WCI  29
6HR MIN TEMP:  37; 6HR MAX TEMP:  43;

LAWRENCE       CLOUDY    38  30  73 N17       30.23R WCI  28
6HR MIN TEMP:  38; 6HR MAX TEMP:  43;

MANHATTAN      CLOUDY    36  27  69 N7        30.26R
6HR MIN TEMP:  36; 6HR MAX TEMP:  40;

OLATHE IND     CLOUDY    37  30  75 N10       30.21R WCI  30
6HR MIN TEMP:  37; 6HR MAX TEMP:  43;

OLATHE EXE     CLOUDY    38  30  73 N13G20    30.19R WCI  30
6HR MIN TEMP:  38; 6HR MAX TEMP:  44;

SALINA         CLOUDY    37  26  64 N12       30.27R WCI  29
6HR MIN TEMP:  35; 6HR MAX TEMP:  42;

TOPEKA BILLARD CLOUDY    38  29  70 N8        30.24R
6HR MIN TEMP:  38; 6HR MAX TEMP:  42;

TOPEKA FORBES  CLOUDY    37  28  70 N10       30.22R WCI  30
6HR MIN TEMP:  37; 6HR MAX TEMP:  42;

$$



USA.gov is the U.S. government's official web portal to all federal, state and local government web resources and services.